TimeEST,TemperatureF,Dew PointF,Humidity,Sea Level PressureIn,VisibilityMPH,Wind Direction,Wind SpeedMPH,Gust SpeedMPH,PrecipitationIn,Events,Conditions,WindDirDegrees,DateUTC
12:53 AM,-9.0,-14.1,79,30.17,1.2,NNW,12.7,-,N/A,,Haze,330,2013-01-22 05:53:00
1:29 AM,-9.4,-14.8,77,30.06,0.8,NNW,10.4,-,N/A,,Haze,340,2013-01-22 06:29:00
1:38 AM,-7.6,-14.8,71,30.06,1.0,NW,12.7,19.6,N/A,,Haze,320,2013-01-22 06:38:00
1:49 AM,-7.6,-14.8,71,30.06,1.2,NNW,9.2,-,N/A,,Haze,330,2013-01-22 06:49:00
1:53 AM,-8.0,-14.1,75,30.17,1.5,NNW,8.1,-,N/A,,Haze,330,2013-01-22 06:53:00
2:53 AM,-8.0,-13.0,79,30.18,1.2,NW,8.1,-,N/A,,Haze,320,2013-01-22 07:53:00
3:24 AM,-7.6,-14.8,71,30.07,2.0,NW,10.4,-,0.00,Snow,Light Snow,310,2013-01-22 08:24:00
3:43 AM,-7.6,-14.8,71,30.08,3.0,NW,12.7,-,0.00,Snow,Light Snow,320,2013-01-22 08:43:00
3:53 AM,-8.0,-15.0,71,30.19,4.0,NW,11.5,-,0.00,Snow,Light Snow,320,2013-01-22 08:53:00
4:10 AM,-7.6,-14.8,71,30.08,2.0,NNW,10.4,-,0.00,Snow,Light Snow,330,2013-01-22 09:10:00
4:26 AM,-7.6,-14.8,71,30.08,5.0,NW,8.1,-,0.00,Snow,Light Snow,310,2013-01-22 09:26:00
4:35 AM,-7.6,-14.8,71,30.08,1.8,NNW,10.4,-,0.00,Snow,Light Snow,330,2013-01-22 09:35:00
4:53 AM,-8.0,-13.0,79,30.19,1.2,NW,9.2,-,0.00,Snow,Light Snow,320,2013-01-22 09:53:00
5:30 AM,-7.6,-14.8,71,30.08,2.5,NW,11.5,-,0.00,Snow,Light Snow,320,2013-01-22 10:30:00
5:49 AM,-7.6,-13.0,77,30.09,1.5,NNW,11.5,-,0.00,Snow,Light Snow,330,2013-01-22 10:49:00
5:53 AM,-8.0,-13.0,79,30.19,1.5,NNW,11.5,-,0.00,Snow,Light Snow,330,2013-01-22 10:53:00
6:53 AM,-7.6,-13.0,77,30.10,1.2,NNW,12.7,-,N/A,Snow,Light Snow,330,2013-01-22 11:53:00
7:19 AM,-7.6,-11.2,84,30.10,1.0,NNW,11.5,-,0.00,Snow,Light Snow,330,2013-01-22 12:19:00
7:30 AM,-7.6,-11.2,84,30.10,0.8,NW,13.8,-,0.00,Snow,Light Snow,320,2013-01-22 12:30:00
7:44 AM,-5.8,-11.2,77,30.11,1.2,NW,13.8,-,0.00,Snow,Light Snow,320,2013-01-22 12:44:00
7:53 AM,-6.0,-11.9,75,30.22,1.2,NW,13.8,-,0.00,Snow,Light Snow,310,2013-01-22 12:53:00
8:00 AM,-5.8,-11.2,77,30.11,1.5,NW,15.0,-,0.00,Snow,Light Snow,320,2013-01-22 13:00:00
8:37 AM,-7.6,-14.8,71,30.12,3.0,NW,11.5,-,0.00,Snow,Light Snow,320,2013-01-22 13:37:00
8:49 AM,-7.6,-13.0,77,30.12,1.8,NNW,15.0,19.6,0.00,Snow,Light Snow,330,2013-01-22 13:49:00
8:53 AM,-7.1,-13.0,75,30.23,1.5,NW,11.5,-,0.00,Snow,Light Snow,320,2013-01-22 13:53:00
9:27 AM,-7.6,-13.0,77,30.12,2.5,NW,13.8,-,0.00,Snow,Light Snow,320,2013-01-22 14:27:00
9:53 AM,-6.0,-11.9,75,30.23,2.0,NW,11.5,-,0.00,Snow,Light Snow,310,2013-01-22 14:53:00
10:04 AM,-5.8,-13.0,71,30.13,1.5,NW,11.5,-,0.00,Snow,Light Snow,320,2013-01-22 15:04:00
10:15 AM,-5.8,-11.2,77,30.13,0.5,NW,11.5,-,0.00,Snow,Snow,320,2013-01-22 15:15:00
10:53 AM,-5.1,-11.9,72,30.25,1.2,NW,13.8,-,0.00,Snow,Light Snow,320,2013-01-22 15:53:00
11:01 AM,-5.8,-11.2,77,30.14,1.2,NW,10.4,-,0.00,Snow,Light Snow,320,2013-01-22 16:01:00
11:11 AM,-5.8,-11.2,77,30.14,0.5,NW,13.8,-,0.00,Snow,Snow,320,2013-01-22 16:11:00
11:24 AM,-5.8,-11.2,77,30.15,1.2,NW,12.7,-,0.00,Snow,Light Snow,310,2013-01-22 16:24:00
11:53 AM,-5.1,-11.0,76,30.27,0.5,NW,15.0,-,0.00,Snow,Snow,320,2013-01-22 16:53:00
12:01 PM,-5.8,-9.4,84,30.16,0.5,NW,17.3,21.9,0.00,Snow,Snow,320,2013-01-22 17:01:00
12:16 PM,-5.8,-9.4,84,30.16,0.2,NNW,12.7,-,0.00,Snow,Heavy Snow,330,2013-01-22 17:16:00
12:25 PM,-5.8,-11.2,77,30.16,0.5,NW,17.3,20.7,0.00,Snow,Snow,320,2013-01-22 17:25:00
12:53 PM,-4.0,-9.9,76,30.26,0.5,NNW,13.8,21.9,0.00,Snow,Snow,330,2013-01-22 17:53:00
1:53 PM,-2.9,-9.0,75,30.25,0.8,NW,9.2,-,0.00,Snow,Light Snow,320,2013-01-22 18:53:00
2:01 PM,-2.2,-9.4,71,30.14,0.5,NW,11.5,-,0.00,Snow,Snow,320,2013-01-22 19:01:00
2:45 PM,-2.2,-7.6,78,30.14,1.2,NW,10.4,-,0.00,Snow,Light Snow,310,2013-01-22 19:45:00
2:53 PM,-2.0,-8.0,76,30.24,1.5,NW,11.5,-,0.00,Snow,Light Snow,310,2013-01-22 19:53:00
3:02 PM,-2.2,-7.6,78,30.14,2.5,NW,10.4,-,0.00,Snow,Light Snow,310,2013-01-22 20:02:00
3:12 PM,-2.2,-7.6,78,30.13,1.2,NW,9.2,-,0.00,Snow,Light Snow,310,2013-01-22 20:12:00
3:32 PM,-0.4,-7.6,72,30.13,2.5,WNW,10.4,-,0.00,Snow,Light Snow,300,2013-01-22 20:32:00
3:53 PM,-0.9,-6.0,79,30.24,2.0,WNW,6.9,-,0.00,Snow,Light Snow,290,2013-01-22 20:53:00
4:00 PM,-0.4,-5.8,78,30.14,1.5,WNW,6.9,-,0.00,Snow,Light Snow,290,2013-01-22 21:00:00
4:53 PM,-0.0,-5.1,79,30.23,1.5,SW,4.6,-,0.00,Snow,Light Snow,230,2013-01-22 21:53:00
5:10 PM,-0.4,-4.0,85,30.12,0.5,SW,4.6,-,0.00,Fog-Snow,Snow,230,2013-01-22 22:10:00
5:24 PM,-0.4,-4.0,85,30.13,1.2,SSW,5.8,-,0.00,Snow,Light Snow,210,2013-01-22 22:24:00
5:53 PM,-0.0,-4.0,83,30.23,1.5,SW,3.5,-,0.00,Snow,Light Snow,220,2013-01-22 22:53:00
6:08 PM,-0.4,-5.8,78,30.12,1.2,WSW,8.1,-,0.00,Snow,Light Snow,250,2013-01-22 23:08:00
6:33 PM,-0.4,-4.0,85,30.12,0.8,SW,6.9,-,0.00,Snow,Light Snow,230,2013-01-22 23:33:00
6:40 PM,-0.4,-4.0,85,30.12,1.5,SSW,6.9,-,0.00,Snow,Light Snow,200,2013-01-22 23:40:00
6:53 PM,-0.9,-4.0,87,30.22,0.5,SW,6.9,-,0.00,Fog-Snow,Snow,230,2013-01-22 23:53:00
7:00 PM,-0.4,-5.8,78,30.11,0.5,SSW,5.8,-,0.00,Fog-Snow,Snow,210,2013-01-23 00:00:00
7:11 PM,-0.4,-5.8,78,30.11,0.5,WSW,11.5,16.1,0.00,Fog-Snow,Snow,240,2013-01-23 00:11:00
7:26 PM,-0.4,-5.8,78,30.11,0.2,WSW,10.4,19.6,0.00,Fog-Snow,Heavy Snow,240,2013-01-23 00:26:00
7:40 PM,-0.4,-4.0,85,30.10,0.5,WSW,12.7,-,0.00,Fog-Snow,Snow,240,2013-01-23 00:40:00
7:53 PM,-0.0,-4.0,83,30.20,0.5,WSW,11.5,-,0.00,Fog-Snow,Snow,240,2013-01-23 00:53:00
8:53 PM,-0.0,-4.0,83,30.19,0.5,SW,5.8,-,0.00,Fog-Snow,Snow,230,2013-01-23 01:53:00
9:41 PM,1.4,-2.2,85,30.08,0.8,WSW,9.2,-,0.00,Snow,Light Snow,240,2013-01-23 02:41:00
9:50 PM,1.4,-2.2,85,30.07,0.5,WSW,9.2,-,0.00,Fog-Snow,Snow,240,2013-01-23 02:50:00
9:53 PM,1.0,-2.9,83,30.17,0.5,SW,10.4,-,0.00,Fog-Snow,Snow,230,2013-01-23 02:53:00
10:19 PM,1.4,-2.2,85,30.08,0.8,WSW,9.2,19.6,0.00,Snow,Light Snow,250,2013-01-23 03:19:00
10:33 PM,1.4,-2.2,85,30.08,0.5,WSW,8.1,-,0.00,Fog-Snow,Snow,250,2013-01-23 03:33:00
10:53 PM,1.0,-2.9,83,30.17,0.8,WSW,6.9,-,0.00,Snow,Light Snow,250,2013-01-23 03:53:00
11:07 PM,-0.4,-2.2,92,30.08,1.0,WSW,6.9,-,0.00,Snow,Light Snow,250,2013-01-23 04:07:00
11:15 PM,-0.4,-4.0,85,30.07,0.5,WSW,5.8,-,0.00,Fog-Snow,Snow,250,2013-01-23 04:15:00
11:53 PM,-0.0,-4.0,83,30.18,0.8,WSW,5.8,-,0.00,Snow,Light Snow,240,2013-01-23 04:53:00